Weather History for Chillicothe, MO

Change the Weather History Date:

Friday, November 1, 2013

  Actual Average (KIRK) Record (KIRK)
Temperature  
Mean Temperature 50 °F 47 °F  
Max Temperature 57 °F 58 °F 82 °F (1937)
Min Temperature 42 °F 37 °F 19 °F (2002)
Degree Days  
Heating Degree Days 16 18  
Month to date heating degree days 18  
Since 1 July heating degree days 507  
Cooling Degree Days 0 0  
Month to date cooling degree days 0  
Year to date cooling degree days 939  
Moisture  
Dew Point 39 °F    
Average Humidity 69    
Maximum Humidity 82    
Minimum Humidity 51    
Precipitation  
Precipitation 0.02 in 0.12 in 2.07 in (1984)
Month to date precipitation 0.12  
Year to date precipitation 34.96  
Sea Level Pressure  
Sea Level Pressure 29.79 in    
Wind  
Wind Speed 4 mph (West)    
Max Wind Speed 12 mph    
Max Gust Speed 21 mph    
T = Trace of Precipitation, MM = Missing Value Source: NWS Daily Summary

Daily Weather History Graph

Daily Weather History Graph

Search for Another Location

Airport:

Trip Planner

Search our weather history database for the weather conditions in past years. The results will help you decide how hot, cold, wet, or windy it might be!

Date:

Astronomy

Nov. 01, 2013 Rise Set
Actual Time 7:43 AM CDT 6:11 PM CDT
Civil Twilight 7:15 AM CDT 6:39 PM CDT
Nautical Twilight 6:43 AM CDT 7:11 PM CDT
Astronomical Twilight 6:11 AM CDT 7:43 PM CDT
Moon 5:36 AM CDT (11/1) 5:05 PM CDT (11/1)
Length of Visible Light 11h 24m
Length of Day
10h 28m
Waning Crescent, 4% of the Moon is Illuminated
Nov 1
Waning Crescent
Nov 3
New
Nov 9
First Quarter
Nov 17
Full
Nov 25
Last Quarter

Hourly Weather History & Observations

Time (CDT) Temp. Windchill Dew Point Humidity Pressure Visibility Wind Dir Wind Speed Gust Speed Precip Events Conditions
12:52 AM 46.0 °F 44.8 °F 39.9 °F 79% 29.62 in - Variable 3.5 mph - N/A   Unknown
1:52 AM 45.0 °F 43.5 °F 39.0 °F 80% 29.65 in - SW 3.5 mph - N/A   Unknown
2:52 AM 45.0 °F 43.5 °F 39.0 °F 80% 29.65 in - WSW 3.5 mph - N/A   Unknown
3:52 AM 44.1 °F - 37.9 °F 79% 29.66 in - Calm Calm - N/A   Unknown
4:52 AM 44.1 °F 42.5 °F 37.0 °F 76% 29.68 in - SW 3.5 mph - N/A   Unknown
5:52 AM 43.0 °F 40.3 °F 37.0 °F 80% 29.70 in - Variable 4.6 mph - N/A   Unknown
6:52 AM 42.1 °F - 37.0 °F 82% 29.72 in - Calm Calm - N/A   Unknown
7:52 AM 43.0 °F - 37.0 °F 80% 29.73 in - Calm Calm - N/A   Unknown
8:52 AM 46.0 °F 43.9 °F 37.9 °F 73% 29.75 in - Variable 4.6 mph - N/A   Unknown
9:52 AM 50.0 °F - 39.0 °F 66% 29.78 in - NW 8.1 mph - N/A   Unknown
10:52 AM 52.0 °F - 37.9 °F 59% 29.78 in - WNW 11.5 mph 18.4 mph N/A   Unknown
11:52 AM 55.0 °F - 39.0 °F 55% 29.80 in - WNW 10.4 mph 20.7 mph N/A   Unknown
12:52 PM 57.0 °F - 39.0 °F 51% 29.79 in - NW 8.1 mph 16.1 mph N/A   Unknown
1:52 PM 55.9 °F - 37.9 °F 51% 29.79 in - NW 11.5 mph 18.4 mph N/A   Unknown
2:52 PM 55.0 °F - 39.9 °F 57% 29.81 in - Variable 6.9 mph - N/A   Unknown
3:52 PM 54.0 °F - 39.9 °F 59% 29.83 in - West 8.1 mph - N/A   Unknown
4:52 PM 57.0 °F - 39.9 °F 53% 29.83 in - West 5.8 mph - N/A   Unknown
5:52 PM 55.9 °F - 39.0 °F 53% 29.84 in - Variable 3.5 mph - N/A   Unknown
6:52 PM 51.1 °F - 39.9 °F 66% 29.86 in - Calm Calm - N/A   Unknown
7:52 PM 51.1 °F - 39.9 °F 66% 29.88 in - Variable 3.5 mph - N/A   Unknown
8:52 PM 48.0 °F - 42.1 °F 80% 29.90 in - Calm Calm - 0.02 in   Unknown
9:52 PM 48.9 °F - 41.0 °F 74% 29.93 in - West 4.6 mph - N/A   Unknown
10:52 PM 48.0 °F - 39.9 °F 74% 29.94 in - Variable 5.8 mph - N/A   Unknown
11:52 PM 46.9 °F - 39.0 °F 74% 29.95 in - West 5.8 mph - N/A   Unknown